[[{"header":{"parameterUnit":"m.s-1","parameterCategory":1,"la1":30.2991,"la2":30.254,"lo1":-89.0895,"lo2":-89.0444,"dy":0.0017,"dx":0.0017,"nx":28,"ny":28,"refTime":"2025-03-17T21:00:00:Z","depth":0,"parameterNumber":2,"parameterNumberName":"U-component_of_WINDS"},"data":[0,0,0,0,0,0,0,0,0,0,0,0,0,0,0,0,0,0,0,0,0,0,0,0,0,0,0,0,0,0,0,0,0,0,0,0,0,0,0,0,0,0,0,0,0,0,0,0,0,0,0,0,0,0,0,0,0,0,1.5991,1.5992,0,1.6081,1.6082,1.6083,1.606,1.6058,1.6056,1.6054,1.6151,1.6155,1.6159,0,0,0,0,0,0,0,0,0,0,0,0,0,1.5805,1.5809,1.5991,1.5992,1.5994,1.6081,1.6082,1.6083,1.606,1.6058,1.6056,1.6054,1.615,1.6155,1.616,0,0,0,0,0,0,0,0,0,0,0,0,0,1.589,1.581,1.5991,1.5992,1.5993,1.6081,1.6082,1.6084,1.6061,1.6058,1.6055,1.6053,1.6148,1.6154,1.6161,1.6254,0,0,1.618,1.6183,0,0,0,0,0,0,0,0,1.5885,1.5896,1.5991,1.5992,1.5994,1.6056,1.6052,1.6141,1.6061,1.6035,1.6054,1.6051,1.6122,1.613,1.6153,1.6258,1.6262,1.6181,1.6184,1.6187,1.6189,0,0,0,0,0,0,0,1.5879,1.5893,1.6027,1.5992,1.5994,1.599,1.5999,1.6069,1.6093,1.6037,1.6036,1.6046,1.6122,1.6147,1.6155,1.6264,1.618,1.6186,1.619,1.6192,1.6453,1.6456,0,0,0,0,0,0,1.5871,1.5888,1.6024,1.603,1.5931,1.5996,1.6006,1.6039,1.6092,1.6097,1.6049,1.6045,1.6138,1.6148,1.6159,1.6273,1.6187,1.6193,1.6197,1.645,1.6454,1.6457,0,0,0,0,0,0,1.5867,1.5884,1.602,1.5958,1.5975,1.6002,1.6039,1.6042,1.6067,1.61,1.6105,1.6069,1.6136,1.615,1.6231,1.6276,1.6196,1.6202,1.6446,1.6451,1.6455,1.6502,0,0,0,0,0,0,1.5862,1.5882,1.5917,1.5959,1.5979,1.6089,1.6042,1.6046,1.6078,1.6074,1.6121,1.6126,1.6135,1.6221,1.6237,1.6284,1.6207,1.6442,1.6448,1.6454,1.6496,1.6507,1.6517,0,0,0,0,0,1.5856,1.5927,1.5919,1.5935,1.6022,1.6092,1.6103,1.611,1.6081,1.6117,1.6139,1.6125,1.6268,1.623,1.6247,1.6296,1.6439,1.6447,1.6453,1.6492,1.6505,1.6517,0,0,0,0,0,0,1.589,1.5932,1.5924,1.601,1.6048,1.6088,1.6133,1.6124,1.6171,1.6166,1.6174,1.6185,1.6268,1.629,1.6246,1.6391,1.635,1.6361,1.6373,1.6386,1.6397,1.639,1.6212,0,0,0,0,0,1.5907,1.5959,1.5994,1.6067,1.6086,1.6106,1.6137,1.6139,1.6179,1.6195,1.6222,1.6263,1.6317,1.6353,1.6404,1.6499,1.6511,1.6542,1.6552,1.6561,1.657,1.6625,1.664,1.648,1.648,1.648,0,0,1.5945,1.5974,1.6006,1.6075,1.6104,1.6159,1.612,1.6179,1.6221,1.6204,1.6282,1.6304,1.635,1.6439,1.6479,1.646,1.6617,1.6569,1.6576,1.6581,1.6633,1.6648,1.6662,1.6484,1.6484,1.6483,0,0,1.6041,1.6067,1.6132,1.6162,1.6206,1.6219,1.6235,1.6277,1.6291,1.6369,1.6358,1.6409,1.6501,1.6535,1.6564,1.6675,1.6665,1.6692,1.6746,1.6799,1.6812,1.6823,1.6865,1.6879,1.6701,1.6701,1.6701,0,1.6081,1.6162,1.6167,1.6228,1.6259,1.6245,1.6313,1.6342,1.6402,1.6425,1.6402,1.6519,1.6549,1.6647,1.6674,1.6697,1.6717,1.6687,1.6809,1.682,1.6831,1.6871,1.6886,1.6704,1.6704,1.6704,1.6703,0,1.6212,1.6269,1.6316,1.6373,1.641,1.6474,1.6489,1.6527,1.6526,1.6542,1.6624,1.6659,1.6719,1.6742,1.6742,1.684,1.6827,1.6807,1.6766,1.6849,1.6887,1.6902,1.6709,1.6708,1.6707,1.6706,0,0,1.6332,1.6391,1.6408,1.6435,1.6484,1.6528,1.6593,1.665,1.6683,1.6725,1.678,1.686,1.6842,1.6875,1.6879,1.6925,1.7014,1.69,1.6901,1.6921,1.7127,1.7143,1.7161,1.7007,1.701,1.7012,1.7124,0,1.6434,1.6545,1.6552,1.6654,1.6708,1.6696,1.6752,1.679,1.6807,1.6857,1.6877,1.6934,1.6904,1.6925,1.697,1.6993,1.7055,1.6985,1.7061,1.7064,1.7051,1.718,1.7197,1.7301,1.7138,1.7141,1.7143,0,1.6567,1.6612,1.672,1.6762,1.6785,1.6835,1.6889,1.6936,1.6979,1.6989,1.7027,1.7025,1.7093,1.7049,1.7145,1.7098,1.7129,1.7146,1.715,1.7159,1.7109,1.7194,1.7334,1.735,1.7165,1.7164,1.7162,0,1.6646,1.6734,1.681,1.6833,1.6884,1.692,1.6944,1.6983,1.7018,1.7066,1.7089,1.7144,1.7175,1.7219,1.7234,1.72,1.733,1.7287,1.7342,1.7342,1.7371,1.7369,1.752,1.7389,1.7389,1.7388,1.7388,0,1.676,1.6827,1.6847,1.6894,1.6969,1.6977,1.7052,1.7073,1.7109,1.7161,1.7155,1.7205,1.7219,1.7273,1.7284,1.7363,1.7377,1.7389,1.7391,1.739,1.7389,1.7412,1.7406,1.7392,1.7391,1.7391,1.739,0,1.6862,1.6878,1.696,1.7002,1.7014,1.7068,1.7104,1.7151,1.7167,1.7234,1.725,1.7277,1.734,1.7358,1.7433,1.7441,1.7535,1.753,1.752,1.7521,1.7576,1.7571,1.7748,1.7772,1.7623,1.7625,1.7626,0,1.6934,1.6985,1.7032,1.7066,1.7091,1.7146,1.7181,1.7191,1.7229,1.7282,1.7323,1.7384,1.7434,1.7535,1.7563,1.7621,1.7619,1.7676,1.7627,1.7625,1.7622,1.7619,1.7626,1.7686,1.7688,1.7689,1.769,0,1.7062,1.7068,1.7117,1.7171,1.7213,1.7256,1.7298,1.7326,1.7343,1.7386,1.7449,1.7487,1.7564,1.7626,1.7685,1.7712,1.7705,1.7705,1.7721,1.7722,1.7715,1.7721,1.7547,1.7701,1.77,1.7699,1.7699,1.7698,1.7153,1.7198,1.7239,1.7296,1.7328,1.7367,1.7413,1.7435,1.7487,1.755,1.7553,1.7623,1.7666,1.7745,1.7774,1.783,1.7814,1.7837,1.7843,1.7849,1.7854,1.7704,1.7841,1.7841,1.784,1.784,1.784,0,1.7282,1.7307,1.7359,1.7417,1.7463,1.745,1.7496,1.7535,1.7596,1.7636,1.7685,1.7759,1.782,1.7852,1.7913,1.7952,1.795,1.7968,1.7966,1.7973,1.7865,1.7846,1.7968,1.7968,1.7968,1.7968,1.7968,1.7968,1.7354,1.7431,1.7442,1.7536,1.7561,1.7628,1.7656,1.7693,1.7725,1.7808,1.7857,1.7877,1.7916,1.7979,1.8035,1.8043,1.8067,1.8087,1.8094,1.7993,1.798,1.7967,1.7949,1.8091,1.8092,1.8197,1.8198,1.8198]},{"header":{"parameterUnit":"m.s-1","parameterCategory":1,"la1":30.2991,"la2":30.254,"lo1":-89.0895,"lo2":-89.0444,"dy":0.0017,"dx":0.0017,"nx":28,"ny":28,"refTime":"2025-03-17T21:00:00:Z","depth":0,"parameterNumber":3,"parameterNumberName":"V-component_of_WINDS"},"data":[0,0,0,0,0,0,0,0,0,0,0,0,0,0,0,0,0,0,0,0,0,0,0,0,0,0,0,0,0,0,0,0,0,0,0,0,0,0,0,0,0,0,0,0,0,0,0,0,0,0,0,0,0,0,0,0,0,0,-0.3286,-0.3286,0,-0.3311,-0.3311,-0.3312,-0.3375,-0.3376,-0.3378,-0.3379,-0.3402,-0.3402,-0.3401,0,0,0,0,0,0,0,0,0,0,0,0,0,-0.3291,-0.3291,-0.3286,-0.3286,-0.3287,-0.3311,-0.3311,-0.3312,-0.3375,-0.3376,-0.3378,-0.3379,-0.3403,-0.3402,-0.3401,0,0,0,0,0,0,0,0,0,0,0,0,0,-0.33,-0.3291,-0.3286,-0.3321,-0.3324,-0.3311,-0.3311,-0.3312,-0.3374,-0.3376,-0.3378,-0.338,-0.3403,-0.3402,-0.3401,-0.3355,0,0,-0.3398,-0.3398,0,0,0,0,0,0,0,0,-0.3299,-0.3299,-0.3316,-0.3319,-0.3322,-0.3342,-0.3322,-0.3326,-0.3374,-0.3355,-0.3379,-0.3381,-0.3381,-0.3382,-0.3382,-0.3356,-0.3357,-0.3398,-0.3398,-0.3397,-0.3397,0,0,0,0,0,0,0,-0.3298,-0.3299,-0.3296,-0.3316,-0.332,-0.3335,-0.3338,-0.3323,-0.3356,-0.3357,-0.3362,-0.3364,-0.3383,-0.3382,-0.3383,-0.3357,-0.3398,-0.3397,-0.3397,-0.3396,-0.3295,-0.3293,0,0,0,0,0,0,-0.3293,-0.3298,-0.3295,-0.3297,-0.3316,-0.3333,-0.3337,-0.3334,-0.3357,-0.3362,-0.3362,-0.3367,-0.3383,-0.3384,-0.3384,-0.3331,-0.3397,-0.3396,-0.3396,-0.3297,-0.3295,-0.3292,0,0,0,0,0,0,-0.3293,-0.3292,-0.3294,-0.3298,-0.33,-0.3331,-0.3326,-0.3333,-0.3333,-0.336,-0.3367,-0.3356,-0.3385,-0.3385,-0.3362,-0.3333,-0.3396,-0.3395,-0.33,-0.3296,-0.3293,-0.3225,0,0,0,0,0,0,-0.3293,-0.3292,-0.3275,-0.3298,-0.3299,-0.3272,-0.3325,-0.3332,-0.3331,-0.3338,-0.3356,-0.3361,-0.3386,-0.3363,-0.3361,-0.3333,-0.3394,-0.3302,-0.3298,-0.3294,-0.323,-0.322,-0.3212,0,0,0,0,0,-0.3293,-0.3254,-0.3274,-0.3273,-0.3279,-0.327,-0.3271,-0.3301,-0.3329,-0.3312,-0.333,-0.3361,-0.3337,-0.336,-0.3358,-0.3329,-0.3304,-0.3299,-0.3295,-0.3235,-0.3222,-0.3212,0,0,0,0,0,0,-0.3226,-0.3258,-0.328,-0.3248,-0.3256,-0.3281,-0.326,-0.3287,-0.3287,-0.3293,-0.333,-0.3334,-0.3305,-0.3315,-0.3341,-0.3286,-0.3326,-0.332,-0.328,-0.3269,-0.326,-0.3258,-0.3393,0,0,0,0,0,-0.3208,-0.3199,-0.3227,-0.3195,-0.3199,-0.3228,-0.3226,-0.3248,-0.3258,-0.3262,-0.3278,-0.3285,-0.328,-0.3275,-0.3271,-0.3233,-0.3237,-0.3212,-0.3203,-0.3195,-0.3189,-0.317,-0.3159,-0.3277,-0.3277,-0.3277,0,0,-0.317,-0.3186,-0.3178,-0.3182,-0.3192,-0.318,-0.3231,-0.3217,-0.3209,-0.3259,-0.3238,-0.325,-0.3261,-0.323,-0.3217,-0.3237,-0.3158,-0.3189,-0.3182,-0.3181,-0.3164,-0.3152,-0.3142,-0.3273,-0.3274,-0.3274,0,0,-0.3095,-0.3106,-0.3082,-0.309,-0.3103,-0.3123,-0.3117,-0.3138,-0.3149,-0.3128,-0.3166,-0.3157,-0.3146,-0.3153,-0.3154,-0.3082,-0.311,-0.308,-0.3031,-0.3011,-0.3002,-0.2994,-0.2967,-0.2958,-0.3075,-0.3074,-0.3074,0,-0.3045,-0.3031,-0.3065,-0.3049,-0.305,-0.3096,-0.3071,-0.3077,-0.3088,-0.3087,-0.3111,-0.3098,-0.3109,-0.308,-0.3062,-0.3062,-0.3056,-0.3078,-0.3,-0.2993,-0.2986,-0.2961,-0.2951,-0.3071,-0.3071,-0.3071,-0.3072,0,-0.2969,-0.2959,-0.2937,-0.2948,-0.2946,-0.2925,-0.2956,-0.2951,-0.2974,-0.2991,-0.297,-0.2985,-0.2985,-0.298,-0.3002,-0.2953,-0.2966,-0.2994,-0.3034,-0.297,-0.2948,-0.2938,-0.3065,-0.3066,-0.3068,-0.3069,0,0,-0.2852,-0.2883,-0.2874,-0.2879,-0.2898,-0.289,-0.2871,-0.2872,-0.2866,-0.2873,-0.2858,-0.2848,-0.2874,-0.2876,-0.29,-0.2882,-0.2824,-0.2913,-0.2914,-0.2895,-0.2771,-0.2749,-0.2738,-0.2843,-0.2842,-0.284,-0.277,0,-0.2781,-0.2752,-0.2783,-0.2747,-0.2737,-0.2781,-0.2765,-0.2774,-0.279,-0.2784,-0.2802,-0.2794,-0.283,-0.2832,-0.2816,-0.2834,-0.2799,-0.284,-0.2829,-0.2828,-0.2824,-0.2726,-0.2703,-0.2636,-0.2762,-0.276,-0.2759,0,-0.2694,-0.2697,-0.2661,-0.2682,-0.2679,-0.2664,-0.2667,-0.2661,-0.2672,-0.2685,-0.2688,-0.2716,-0.2699,-0.2739,-0.2715,-0.2742,-0.274,-0.2748,-0.2746,-0.2746,-0.2789,-0.2723,-0.2616,-0.2606,-0.2746,-0.2747,-0.2748,0,-0.2612,-0.2607,-0.2585,-0.2588,-0.2612,-0.26,-0.2609,-0.2623,-0.2622,-0.2624,-0.2624,-0.2624,-0.2624,-0.2623,-0.2651,-0.2678,-0.2624,-0.2666,-0.2634,-0.2633,-0.262,-0.262,-0.2511,-0.2619,-0.2619,-0.2619,-0.262,0,-0.2529,-0.2505,-0.2548,-0.2534,-0.2508,-0.2543,-0.2517,-0.253,-0.2542,-0.2531,-0.2569,-0.2558,-0.2595,-0.2588,-0.261,-0.2587,-0.2587,-0.2596,-0.2602,-0.2593,-0.2591,-0.2591,-0.2596,-0.2617,-0.2617,-0.2618,-0.2618,0,-0.2433,-0.2461,-0.2439,-0.2464,-0.247,-0.2449,-0.247,-0.2458,-0.2477,-0.2463,-0.2462,-0.2491,-0.2484,-0.2512,-0.251,-0.2525,-0.2491,-0.2504,-0.2487,-0.2491,-0.2457,-0.2459,-0.2343,-0.2329,-0.2446,-0.2445,-0.2444,0,-0.2378,-0.236,-0.2384,-0.238,-0.2387,-0.238,-0.2379,-0.2413,-0.241,-0.2422,-0.2408,-0.2405,-0.2404,-0.2392,-0.2412,-0.2411,-0.2425,-0.2384,-0.2425,-0.2416,-0.2424,-0.2424,-0.2423,-0.2375,-0.2374,-0.2373,-0.2372,0,-0.2277,-0.2292,-0.229,-0.2292,-0.229,-0.2293,-0.2299,-0.2293,-0.233,-0.2325,-0.2319,-0.2318,-0.2317,-0.2313,-0.2316,-0.2325,-0.2354,-0.2359,-0.2351,-0.2341,-0.2331,-0.2336,-0.2463,-0.2361,-0.2362,-0.2363,-0.2364,-0.2364,-0.22,-0.2187,-0.2201,-0.2197,-0.2205,-0.221,-0.2199,-0.2218,-0.2213,-0.2215,-0.2236,-0.2226,-0.2238,-0.2245,-0.2251,-0.2244,-0.2263,-0.2252,-0.2249,-0.2245,-0.2239,-0.2333,-0.2244,-0.2245,-0.2245,-0.2245,-0.2245,0,-0.2101,-0.2113,-0.2109,-0.2116,-0.2113,-0.2142,-0.2149,-0.2144,-0.2136,-0.2145,-0.2143,-0.2136,-0.2133,-0.2154,-0.2153,-0.2143,-0.2156,-0.2141,-0.2142,-0.2144,-0.2222,-0.2229,-0.213,-0.213,-0.2131,-0.2131,-0.2131,-0.2131,-0.2049,-0.2028,-0.2045,-0.2028,-0.204,-0.2031,-0.2033,-0.2037,-0.2044,-0.2035,-0.2033,-0.2047,-0.206,-0.2061,-0.2059,-0.2065,-0.2063,-0.2043,-0.2054,-0.2127,-0.2138,-0.2149,-0.2155,-0.2043,-0.2042,-0.1976,-0.1975,-0.1975]}]]